Flint, MI

11:39 AM EDT on July 26, 2017 (GMT -0400)
Bishop International

Weather History for KFNT - April, 2013

Change the Weather History Date:

Monday, April 1, 2013

  Actual Average Record
Temperature  
Mean Temperature 31 °F 41 °F  
Max Temperature 37 °F 51 °F 79 °F (2010)
Min Temperature 24 °F 31 °F 7 °F (1923)
Degree Days  
Heating Degree Days 34 24  
Month to date heating degree days 34 24  
Since 1 July heating degree days 5700 6069  
Cooling Degree Days 0 0  
Month to date cooling degree days 0 0  
Year to date cooling degree days 0 0  
Moisture  
Dew Point 18 °F    
Average Humidity 50    
Maximum Humidity 63    
Minimum Humidity 37    
Precipitation  
Precipitation T in 0.09 in 1.14 in (1929)
Month to date precipitation T 0.09  
Year to date precipitation 6.23 5.11  
Snow  
Snow T in 0.20 in 6.20 in (1993)
Month to date snowfall T 0.2  
Since 1 July snowfall 43.6 45.3  
Snow Depth 0.00 in    
Sea Level Pressure  
Sea Level Pressure 29.93 in    
Wind  
Wind Speed 15 mph (WNW)    
Max Wind Speed 28 mph    
Max Gust Speed 33 mph    
Visibility 9 miles    
Events Snow    
T = Trace of Precipitation, MM = Missing Value Source: NWS Daily Summary

Daily Weather History Graph

Daily Weather History Graph

Search for Another Location

Airport or City:

Trip Planner

Search our weather history database for the weather conditions in past years. The results will help you decide how hot, cold, wet, or windy it might be!

Date:

Astronomy

Apr. 01, 2013 Rise Set
Actual Time 7:16 AM EDT 8:01 PM EDT
Civil Twilight 6:47 AM EDT 8:30 PM EDT
Nautical Twilight 6:14 AM EDT 9:04 PM EDT
Astronomical Twilight 5:38 AM EDT 9:39 PM EDT
Moon 1:15 AM EDT (4/1) 10:55 AM EDT (4/1)
Length of Visible Light 13h 42m
Length of Day
12h 44m
Waning Gibbous, 67% of the Moon is Illuminated
Apr 1
Waning Gibbous
Apr 3
Last Quarter
Apr 10
New
Apr 18
First Quarter
Apr 25
Full

Hourly Weather History & Observations

Time (EDT) Temp. Windchill Dew Point Humidity Pressure Visibility Wind Dir Wind Speed Gust Speed Precip Events Conditions
12:43 AM 35.6 °F 25.2 °F 26.6 °F 70% 29.71 in 10.0 mi NNW 18.4 mph 29.9 mph N/A   Overcast
12:53 AM 35.1 °F 24.5 °F 27.0 °F 72% 29.73 in 8.0 mi NW 18.4 mph 29.9 mph 0.00 in Snow Light Snow
1:10 AM 33.8 °F 24.3 °F 28.4 °F 81% 29.73 in 1.8 mi NW 13.8 mph 24.2 mph 0.00 in Snow Light Snow
1:26 AM 33.8 °F 25.8 °F 28.4 °F 81% 29.73 in 3.0 mi NW 10.4 mph - 0.00 in Snow Light Snow
1:35 AM 33.8 °F 24.8 °F 28.4 °F 81% 29.73 in 9.0 mi NW 12.7 mph - 0.00 in   Overcast
1:53 AM 33.1 °F 24.9 °F 28.0 °F 82% 29.75 in 10.0 mi NW 10.4 mph - 0.00 in   Overcast
2:29 AM 33.8 °F 26.4 °F 28.4 °F 81% 29.74 in 10.0 mi NW 9.2 mph - 0.00 in Snow Light Snow
2:53 AM 33.1 °F 23.4 °F 21.9 °F 64% 29.78 in 9.0 mi NW 13.8 mph 25.3 mph 0.00 in   Overcast
3:53 AM 32.0 °F 21.2 °F 19.9 °F 61% 29.80 in 10.0 mi NW 16.1 mph 20.7 mph N/A   Mostly Cloudy
4:53 AM 28.9 °F 17.3 °F 16.0 °F 58% 29.83 in 10.0 mi NW 16.1 mph 23.0 mph N/A   Clear
5:53 AM 28.0 °F 19.3 °F 16.0 °F 61% 29.87 in 10.0 mi NW 9.2 mph - N/A   Clear
6:53 AM 28.0 °F 20.0 °F 17.1 °F 63% 29.89 in 10.0 mi WNW 8.1 mph - N/A   Mostly Cloudy
7:53 AM 28.0 °F 18.1 °F 17.1 °F 63% 29.93 in 10.0 mi WNW 11.5 mph - N/A   Scattered Clouds
8:53 AM 30.0 °F 17.9 °F 12.9 °F 49% 29.95 in 10.0 mi WNW 18.4 mph 28.8 mph N/A   Clear
9:53 AM 30.0 °F 16.6 °F 12.9 °F 49% 29.96 in 10.0 mi WNW 23.0 mph 32.2 mph N/A   Mostly Cloudy
10:53 AM 33.1 °F 21.9 °F 15.1 °F 48% 29.98 in 10.0 mi West 18.4 mph - N/A   Mostly Cloudy
11:53 AM 32.0 °F 20.5 °F 14.0 °F 48% 30.00 in 10.0 mi WNW 18.4 mph 26.5 mph N/A   Overcast
12:53 PM 33.1 °F 22.2 °F 12.9 °F 43% 30.01 in 10.0 mi WNW 17.3 mph 27.6 mph N/A   Overcast
1:53 PM 34.0 °F 22.4 °F 12.0 °F 40% 30.01 in 10.0 mi WNW 20.7 mph 28.8 mph N/A   Mostly Cloudy
2:53 PM 37.0 °F 26.4 °F 14.0 °F 39% 30.01 in 10.0 mi West 20.7 mph 29.9 mph N/A   Mostly Cloudy
3:53 PM 36.0 °F 25.0 °F 14.0 °F 41% 30.02 in 10.0 mi NW 20.7 mph 28.8 mph N/A   Overcast
4:53 PM 34.0 °F 23.0 °F 12.0 °F 40% 30.04 in 10.0 mi WNW 18.4 mph 28.8 mph N/A   Overcast
5:53 PM 33.1 °F 22.6 °F 15.1 °F 48% 30.05 in 10.0 mi WNW 16.1 mph - N/A   Overcast
6:53 PM 30.9 °F 20.2 °F 14.0 °F 50% 30.06 in 10.0 mi WNW 15.0 mph 26.5 mph N/A   Overcast
7:53 PM 30.0 °F 19.5 °F 10.9 °F 45% 30.08 in 10.0 mi WNW 13.8 mph - N/A   Overcast
8:53 PM 28.9 °F 18.2 °F 12.9 °F 51% 30.09 in 10.0 mi WNW 13.8 mph - N/A   Overcast
9:53 PM 28.0 °F 18.6 °F 15.1 °F 58% 30.11 in 10.0 mi West 10.4 mph - N/A   Mostly Cloudy
10:53 PM 26.1 °F 16.8 °F 14.0 °F 60% 30.12 in 10.0 mi West 9.2 mph - N/A   Clear
11:53 PM 26.1 °F 18.4 °F 14.0 °F 60% 30.11 in 10.0 mi West 6.9 mph - N/A   Clear